Probability
10 10 6 6 6 6 6 6 6 10 6 6 3 3 3 3 0 3 3 0 0 0 0 0 0 0 0 0 0 0 0 0 0 0 0 0 3 6
3 6 3 3 3 6 6 6 6 6 6 6 3 3 3 3 3 3 3 0 0 0 0 0 0 0 0 0 0 0 0 0 0 0 0 0 0 0
6 6 6 6 3 3 3 6 6 6 3 6 3 3 3 3 3 3 3 3 3 0 0 0 0 0 0 0 0 0 0 0 0 0 0 0 0 0
10 10 10 10 10 6 3 6 10 6 3 3 3 3 3 3 3 6 3 3 6 0 0 0 0 0 0 0 0 0 0 0 0 0 0 0 0 0
10 10 10 10 10 10 6 6 6 6 6 6 6 3 3 3 3 3 6 6 6 3 0 0 0 0 0 0 0 0 0 0 0 0 0 0 0 0
6 6 6 10 10 10 10 6 6 6 10 3 3 3 3 3 3 6 6 6 3 3 0 0 0 0 0 0 0 0 0 0 0 0 0 0 0 0
6 6 6 3 3 3 3 6 3 6 6 6 6 6 6 3 3 3 6 3 3 0 0 0 0 0 0 0 0 0 0 0 0 0 0 0 0 0
3 3 3 3 3 3 0 0 0 3 6 6 6 6 6 3 3 3 3 3 3 0 0 0 0 0 0 0 0 0 0 0 0 0 0 0 0 0
3 3 3 3 3 3 3 0 0 0 0 3 6 6 6 3 3 3 3 3 3 0 0 0 0 0 0 0 0 0 0 0 0 0 0 0 0 0
3 3 3 3 3 3 3 3 3 0 0 0 0 0 0 0 0 0 3 0 0 0 0 0 0 0 0 0 0 0 0 0 0 0 0 0 0 0
3 3 3 3 0 0 0 3 3 3 0 0 0 0 0 0 0 0 0 0 0 0 0 0 0 0 0 0 0 0 0 0 0 0 0 0 0 0
3 3 0 0 0 0 0 0 3 3 0 0 0 0 0 0 0 0 0 0 0 0 0 0 0 0 0 0 0 0 0 0 0 0 0 0 0 0
3 3 0 0 0 0 0 0 0 0 0 0 0 0 0 0 0 0 0 0 0 0 0 0 0 0 0 0 0 0 0 0 0 0 0 0 0 0
0 0 0 0 0 0 0 0 0 0 0 0 0 0 0 0 0 0 0 0 0 0 0 0 0 0 0 0 0 0 0 0 0 0 0 0 0 0
0 0 0 0 0 0 0 0 0 0 0 0 0 0 0 0 0 0 0 0 0 0 0 0 0 0 0 0 0 0 0 0 0 0 0 0 0 0
0 0 0 0 0 0 0 0 0 0 0 0 0 0 0 0 0 0 0 0 0 0 0 0 0 0 0 0 0 0 0 0 0 0 0 0 0 0
0 0 0 0 0 0 0 0 0 0 0 0 0 0 0 0 0 0 0 0 0 0 0 0 0 0 0 0 0 0 0 0 0 0 0 0 0 0
0 0 0 0 0 0 0 0 0 0 0 0 0 0 0 0 0 0 0 0 0 0 0 0 0 0 0 0 0 0 0 0 0 0 0 0 0 0
0 0 0 0 0 0 0 0 0 0 0 0 0 0 0 0 0 0 0 0 0 0 0 0 0 0 0 0 0 0 0 0 0 0 0 0 0 0
0 0 0 0 0 0 0 0 0 0 0 0 0 0 0 0 0 0 0 0 0 0 0 0 0 0 0 0 0 0 0 0 0 0 0 0 0 0
0 0 0 0 0 0 0 0 0 0 0 0 0 0 0 0 0 0 0 0 0 0 0 0 0 0 0 0 0 0 0 0 0 0 0 0 0 0
0 0 0 0 0 0 0 0 0 0 0 0 0 0 0 0 0 0 0 0 0 0 0 0 0 0 0 0 0 0 0 0 0 0 0 0 0 0
0 0 0 0 0 0 0 0 0 0 0 0 0 0 0 0 0 0 0 0 0 0 0 0 0 0 0 0 0 0 0 0 0 0 0 0 0 0
Height
5874 5873 5872 5871 5870 5869 5868 5867 5867 5865 5864 5863 5861 5860 5859 5858 5857 5855 5854 5853 5851 5850 5848 5847 5846 5845 5844 5842 5841 5840 5839 5837 5836 5835 5834 5833 5832 5830
5872 5870 5869 5868 5867 5865 5864 5863 5862 5862 5860 5858 5857 5855 5854 5853 5852 5851 5849 5847 5846 5844 5843 5841 5840 5838 5837 5836 5834 5833 5831 5830 5828 5827 5826 5825 5823 5822
5869 5867 5866 5864 5863 5862 5861 5859 5858 5857 5856 5854 5852 5851 5849 5848 5846 5845 5844 5842 5841 5838 5837 5835 5833 5832 5830 5828 5827 5825 5823 5822 5820 5819 5817 5816 5814 5813
5867 5865 5863 5861 5860 5858 5857 5856 5854 5853 5851 5849 5848 5846 5845 5843 5841 5840 5838 5836 5835 5832 5830 5828 5826 5824 5822 5820 5819 5817 5815 5813 5811 5810 5808 5807 5805 5803
5864 5862 5860 5858 5857 5855 5853 5852 5850 5848 5846 5845 5843 5842 5840 5838 5836 5834 5832 5830 5828 5826 5823 5821 5819 5816 5814 5812 5810 5808 5806 5804 5802 5800 5798 5796 5795 5793
5861 5859 5857 5855 5853 5851 5849 5848 5846 5844 5842 5840 5838 5836 5835 5832 5830 5828 5826 5824 5822 5819 5816 5814 5811 5809 5806 5804 5802 5799 5797 5794 5792 5790 5788 5786 5784 5782
5858 5856 5854 5852 5850 5848 5846 5844 5842 5839 5837 5835 5833 5831 5829 5827 5824 5822 5819 5817 5814 5812 5809 5806 5803 5801 5798 5795 5792 5790 5787 5784 5781 5779 5776 5774 5772 5770
5855 5853 5850 5848 5846 5844 5841 5839 5837 5835 5833 5831 5828 5826 5823 5820 5818 5815 5812 5810 5807 5804 5801 5798 5795 5792 5789 5786 5783 5780 5777 5774 5771 5768 5765 5763 5760 5758
5851 5849 5846 5844 5842 5839 5837 5835 5832 5830 5827 5825 5822 5820 5817 5814 5811 5808 5805 5802 5799 5796 5793 5790 5787 5784 5780 5777 5773 5770 5767 5763 5760 5757 5754 5751 5748 5746
5847 5845 5842 5840 5837 5835 5832 5830 5827 5824 5822 5819 5816 5813 5810 5807 5804 5801 5798 5795 5792 5789 5785 5782 5779 5775 5771 5768 5764 5760 5757 5753 5750 5746 5743 5739 5736 5734
5843 5840 5838 5835 5833 5830 5827 5825 5822 5819 5816 5813 5810 5807 5804 5800 5797 5794 5791 5788 5784 5781 5777 5773 5770 5766 5763 5759 5755 5751 5747 5743 5739 5736 5732 5729 5725 5722
5839 5836 5833 5830 5827 5824 5822 5819 5816 5813 5810 5807 5803 5800 5797 5793 5790 5786 5783 5780 5776 5772 5768 5765 5761 5757 5754 5749 5745 5741 5737 5733 5729 5725 5721 5718 5714 5710
5834 5831 5828 5825 5822 5819 5816 5813 5809 5806 5803 5800 5797 5793 5790 5786 5782 5778 5775 5771 5767 5763 5759 5755 5752 5747 5743 5739 5735 5731 5726 5722 5718 5714 5710 5706 5703 5699
5828 5825 5822 5819 5816 5813 5810 5806 5803 5800 5797 5793 5790 5786 5782 5778 5774 5770 5766 5762 5758 5754 5750 5746 5742 5738 5733 5729 5725 5721 5716 5712 5708 5703 5699 5695 5691 5687
5822 5819 5816 5813 5810 5807 5803 5800 5797 5793 5790 5786 5782 5779 5775 5771 5767 5762 5758 5754 5749 5745 5741 5736 5732 5728 5724 5719 5715 5711 5706 5702 5697 5693 5688 5684 5680 5676
5817 5813 5810 5807 5804 5801 5797 5793 5790 5786 5782 5779 5775 5771 5767 5762 5758 5754 5750 5745 5741 5736 5732 5727 5723 5718 5714 5709 5705 5700 5695 5691 5687 5682 5677 5673 5668 5664
5811 5807 5804 5801 5798 5794 5790 5787 5783 5779 5775 5771 5767 5763 5759 5754 5750 5745 5741 5736 5732 5727 5723 5718 5713 5709 5704 5699 5695 5690 5685 5680 5676 5671 5667 5662 5658 5654
5805 5801 5798 5795 5791 5787 5784 5780 5775 5771 5767 5763 5759 5755 5750 5746 5742 5737 5732 5727 5723 5718 5713 5709 5704 5699 5695 5690 5685 5679 5674 5669 5665 5660 5656 5652 5648 5643
5799 5795 5792 5788 5784 5781 5777 5772 5768 5764 5760 5755 5751 5747 5742 5738 5733 5728 5723 5718 5713 5709 5704 5699 5694 5689 5685 5680 5675 5669 5664 5659 5655 5650 5646 5641 5637 5633
5792 5789 5785 5781 5777 5774 5770 5765 5761 5757 5752 5748 5743 5739 5734 5729 5724 5719 5714 5709 5705 5700 5695 5690 5685 5680 5675 5670 5665 5660 5654 5649 5645 5640 5636 5631 5627 5622
5785 5782 5778 5774 5770 5766 5762 5758 5753 5749 5744 5740 5735 5730 5726 5721 5716 5711 5706 5701 5696 5691 5686 5681 5676 5670 5665 5660 5655 5650 5645 5639 5635 5630 5625 5621 5616 5612
5779 5775 5771 5767 5763 5759 5755 5750 5746 5741 5737 5732 5727 5723 5718 5713 5708 5703 5698 5693 5688 5683 5678 5672 5667 5662 5656 5651 5646 5641 5636 5631 5625 5620 5615 5610 5605 5601
5771 5768 5764 5760 5756 5751 5747 5742 5738 5734 5729 5724 5720 5715 5710 5705 5700 5695 5690 5685 5680 5675 5669 5664 5658 5653 5647 5642 5637 5631 5626 5621 5616 5611 5606 5600 5595 5590
Wind_Speed
12 12 13 13 13 14 14 15 15 16 17 17 18 18 19 19 20 20 20 21 21 22 23 24 25 25 25 26 26 27 27 27 27 28 29 29 30 30
12 12 13 13 14 14 15 15 16 17 18 19 19 19 20 21 21 21 21 22 22 23 24 24 25 25 26 27 28 27 27 28 29 30 30 31 31 31
13 13 13 13 14 15 15 16 17 17 18 19 19 20 20 21 21 21 22 23 23 24 24 25 26 26 27 28 29 29 30 31 32 32 33 33 33 34
14 14 14 14 15 16 17 17 18 18 18 19 19 19 20 21 21 22 22 24 24 24 24 25 25 27 28 29 29 30 31 31 33 34 35 35 35 36
16 16 16 16 17 17 17 18 18 18 18 19 19 20 21 21 22 23 24 24 25 26 26 27 28 29 29 29 30 31 32 33 33 34 35 36 37 37
17 17 18 18 17 17 18 18 19 19 20 20 21 21 22 23 23 24 25 26 26 27 28 29 30 30 30 31 32 33 33 33 34 35 36 37 38 38
17 18 18 18 17 18 18 19 20 20 21 21 22 23 24 24 25 26 27 27 28 28 29 30 30 31 32 32 33 33 34 35 35 37 37 38 39 39
18 18 18 18 18 19 20 20 20 21 22 22 23 24 24 25 26 26 27 27 29 30 31 30 31 32 32 33 33 34 35 36 37 37 38 38 39 39
19 19 19 19 19 20 20 20 21 22 22 23 23 24 24 25 26 27 28 29 30 30 30 31 32 32 33 33 34 35 35 36 36 37 38 39 39 39
20 20 20 21 21 21 21 22 22 22 23 23 24 25 26 26 27 28 29 29 30 31 32 32 33 33 32 33 34 34 35 36 36 37 37 37 38 38
20 21 21 22 22 23 23 23 23 24 25 26 26 27 28 28 29 29 29 30 31 32 32 32 33 33 33 33 34 34 35 35 36 36 37 37 38 38
21 22 22 23 24 23 23 24 24 25 26 27 27 28 29 29 30 30 30 31 32 33 33 33 34 34 34 35 35 35 35 36 36 37 37 37 38 38
22 23 24 24 24 24 24 25 25 26 27 27 28 29 30 30 30 31 31 32 33 33 33 34 35 35 36 35 36 36 37 37 37 38 38 38 38 39
24 25 25 25 25 25 25 26 26 27 28 28 29 30 30 30 31 31 32 33 33 34 34 35 36 36 36 36 36 37 37 38 38 39 39 39 39 39
25 25 25 25 26 26 26 26 27 27 29 29 30 30 31 31 31 32 33 34 34 35 35 36 36 37 37 37 37 37 37 38 38 39 39 38 38 38
25 25 25 26 26 26 27 27 28 29 29 30 31 31 32 32 33 34 34 35 35 35 36 36 37 37 37 37 37 37 37 38 38 38 38 38 38 37
25 25 26 26 27 27 28 28 29 31 31 32 32 32 33 33 34 34 35 35 35 35 36 37 37 38 37 37 37 38 38 38 38 37 37 37 36 36
25 26 27 27 28 29 29 30 31 31 32 33 33 33 33 34 35 35 36 36 36 36 36 36 37 37 38 38 38 38 38 38 37 36 36 36 35 36
27 27 28 28 29 29 30 30 31 32 33 33 33 34 34 35 35 36 36 36 36 36 36 36 36 37 37 37 37 38 38 37 36 36 36 36 36 36
28 29 29 29 29 30 30 31 32 33 34 34 34 34 35 35 35 36 35 35 35 35 35 36 36 37 37 37 37 37 37 37 36 36 36 36 36 36
28 29 29 29 30 31 31 32 33 33 34 34 34 34 35 35 35 35 34 34 34 35 35 36 36 37 37 37 37 36 36 37 37 37 37 36 36 36
29 29 29 30 31 32 32 33 33 33 33 34 34 33 33 34 34 34 34 34 34 35 36 36 36 37 36 36 36 36 36 36 37 37 37 37 37 35
29 30 30 31 31 32 33 33 33 33 33 33 32 33 33 34 34 35 35 35 35 36 36 36 36 36 36 36 36 36 36 36 36 36 37 37 36 36
Wind_Direction
303 299 295 293 292 291 289 290 290 289 290 290 290 290 291 290 287 287 286 285 285 283 283 283 283 282 279 279 279 280 280 280 280 280 280 279 278 278
306 301 298 296 295 295 291 288 288 290 290 292 294 292 289 287 285 286 287 290 287 285 285 285 284 284 284 283 281 281 281 281 280 280 279 279 279 277
310 305 301 296 296 295 295 292 293 294 292 292 294 293 291 289 287 288 289 291 291 290 288 287 286 285 285 285 283 282 282 282 282 281 281 280 280 279
311 308 305 302 299 297 297 294 293 293 293 294 296 296 296 291 290 291 291 291 292 293 291 289 288 286 286 285 284 284 284 284 283 282 282 281 281 281
310 308 307 307 304 300 300 298 297 295 295 296 297 295 297 297 296 295 295 295 295 295 295 293 292 290 289 287 287 286 285 284 283 282 281 280 280 280
312 308 306 307 306 304 303 302 301 298 298 299 299 298 298 296 297 299 298 297 295 297 298 296 294 293 292 291 290 289 287 287 285 284 283 282 282 281
311 310 308 307 305 306 305 305 302 301 300 300 299 300 299 299 298 297 298 297 297 299 298 297 296 295 294 293 292 291 289 289 287 286 285 285 285 283
315 314 311 309 308 306 305 303 302 301 300 299 299 299 299 299 298 298 298 297 298 298 298 298 299 298 297 296 295 294 293 292 291 289 288 287 286 285
316 315 313 310 308 306 304 303 303 303 303 301 300 301 301 299 298 298 298 299 300 300 300 300 300 300 299 298 297 296 295 294 293 292 291 290 289 287
316 316 315 315 310 307 305 305 305 305 304 303 303 302 301 299 298 299 300 300 301 301 301 301 301 302 301 299 298 298 297 296 295 294 293 292 290 289
315 314 314 313 313 309 306 305 305 305 304 304 304 304 304 303 301 301 302 302 302 302 302 302 302 302 302 301 300 300 299 299 298 297 296 294 292 291
312 312 311 311 311 310 309 307 306 306 306 306 306 306 305 305 304 302 302 302 302 303 303 303 303 303 302 301 301 301 301 301 300 299 297 296 294 293
310 311 311 311 310 309 308 308 306 306 307 307 307 307 306 305 305 305 304 304 304 303 304 303 303 303 302 301 301 301 301 301 300 300 299 297 296 295
310 310 310 310 310 309 308 308 308 307 307 307 308 308 307 307 305 305 306 306 305 304 304 304 304 304 303 303 303 302 301 301 301 300 300 299 298 297
311 310 309 309 309 309 307 308 308 308 308 308 308 308 309 308 307 306 306 306 306 306 305 305 305 305 305 305 304 303 302 302 302 302 302 301 300 298
310 310 310 310 309 309 309 309 309 309 310 309 309 309 309 309 309 308 307 307 306 306 306 306 306 306 306 306 305 305 305 304 303 302 302 302 301 301
310 310 311 311 310 310 310 310 310 311 311 311 310 309 309 309 310 309 308 307 307 306 306 306 307 307 306 307 307 306 306 305 304 303 303 302 302 302
312 312 311 311 310 310 310 311 311 311 312 311 311 311 310 311 310 310 309 308 308 307 307 307 307 307 307 308 308 307 307 306 304 304 304 303 303 303
310 311 312 312 312 312 311 312 313 313 313 313 313 312 312 311 311 311 311 310 309 308 309 309 308 309 309 309 308 308 308 307 306 305 305 305 304 304
309 309 310 311 312 312 312 312 313 313 313 313 313 312 312 312 313 313 313 312 311 310 310 310 310 310 310 310 309 309 309 308 307 307 306 306 306 306
310 310 311 312 312 312 313 313 314 315 315 314 314 314 313 314 315 315 315 314 314 314 313 312 312 312 311 311 311 311 310 310 309 308 308 307 306 306
308 309 310 311 312 312 312 313 314 315 315 315 316 315 315 316 316 316 315 315 315 315 315 314 313 313 313 313 312 311 311 311 311 311 310 309 308 307
308 309 310 311 312 313 313 314 315 316 316 316 316 316 316 317 317 317 317 317 316 316 316 316 316 315 315 315 314 313 313 312 312 311 312 311 310 309